Location: Calvatone
(45.1167°N, 10.4333°E)
Time: 16:06:09
(UTC+00:00)

BlueWalker 3 - Pass Details

Date: 14 June 2023
Orbit: 491 x 508 km, 53.2° (Epoch: 28 September)

Event Time Altitude Azimuth Distance (km) Brightness Sun altitude
Rises 20:45:51 0° 299° (WNW) 2,579 6.8 -13.3°
Reaches altitude 10° 20:48:06 10° 293° (WNW) 1,696 5.5 -13.5°
Maximum altitude 20:51:44 42° 221° (SW) 719 2.6 -13.9°
Enters shadow 20:53:35 24° 165° (SSE) 1,066 3.0 -14.0°
